Weather History for Ashtabula, OH

Change the Weather History Date:

Wednesday, February 6, 2013

  Actual Average (KYNG) Record (KYNG)
Temperature  
Mean Temperature 19 °F 27 °F  
Max Temperature 28 °F 34 °F 62 °F (1938)
Min Temperature 9 °F 20 °F -7 °F (1979)
Degree Days  
Heating Degree Days 46 38  
Month to date heating degree days 231  
Since 1 July heating degree days 3854  
Cooling Degree Days 0 0  
Month to date cooling degree days 0  
Year to date cooling degree days 0  
Moisture  
Dew Point 14 °F    
Average Humidity 70    
Maximum Humidity 81    
Minimum Humidity 49    
Precipitation  
Precipitation 0.00 in 0.08 in 1.51 in (2008)
Month to date precipitation 0.45  
Year to date precipitation 3.00  
Snow  
Snow 0.00 in 0.50 in - ()
Month to date snowfall 2.8  
Since 1 July snowfall 38.8  
Snow Depth -    
Sea Level Pressure  
Sea Level Pressure 30.18 in    
Wind  
Wind Speed 7 mph (NW)    
Max Wind Speed 14 mph    
Max Gust Speed 21 mph    
Visibility 9 miles    
Events Snow    
T = Trace of Precipitation, MM = Missing Value Source: NWS Daily Summary

Daily Weather History Graph

Daily Weather History Graph

Search for Another Location

Airport:

Trip Planner

Search our weather history database for the weather conditions in past years. The results will help you decide how hot, cold, wet, or windy it might be!

Date:

Astronomy

Feb. 06, 2013 Rise Set
Actual Time 7:29 AM EST 5:44 PM EST
Civil Twilight 7:00 AM EST 6:14 PM EST
Nautical Twilight 6:27 AM EST 6:47 PM EST
Astronomical Twilight 5:54 AM EST 7:19 PM EST
Moon 4:13 AM EST (2/6) 2:00 PM EST (2/6)
Length of Visible Light 11h 13m
Length of Day
10h 15m
Waning Crescent, 17% of the Moon is Illuminated
Feb 6
Waning Crescent
Feb 10
New
Feb 17
First Quarter
Feb 25
Full
Mar 4
Last Quarter

Hourly Weather History & Observations

Time (EST) Temp. Windchill Dew Point Humidity Pressure Visibility Wind Dir Wind Speed Gust Speed Precip Events Conditions
12:09 AM 24.8 °F 17.9 °F 19.4 °F 80% 29.91 in 10.0 mi SW 5.8 mph - N/A   Overcast
12:53 AM 25.0 °F 16.3 °F 19.9 °F 81% 29.96 in 9.0 mi WSW 8.1 mph - N/A   Overcast
1:21 AM 26.6 °F 18.2 °F 19.4 °F 74% 29.94 in 9.0 mi West 8.1 mph - N/A   Overcast
1:53 AM 26.1 °F 18.4 °F 21.0 °F 81% 29.98 in 7.0 mi West 6.9 mph - N/A   Overcast
2:50 AM 26.6 °F 18.2 °F 21.2 °F 80% 29.96 in 6.0 mi West 8.1 mph - N/A   Haze
2:53 AM 27.0 °F 18.0 °F 21.9 °F 81% 30.00 in 6.0 mi West 9.2 mph - N/A   Haze
3:53 AM 28.0 °F 20.0 °F 23.0 °F 81% 30.03 in 6.0 mi WNW 8.1 mph 17.3 mph N/A   Haze
4:01 AM 28.4 °F 19.7 °F 23.0 °F 80% 30.00 in 6.0 mi WNW 9.2 mph - N/A   Haze
4:53 AM 25.0 °F 13.1 °F 19.0 °F 78% 30.07 in 9.0 mi NNW 13.8 mph 20.7 mph N/A   Overcast
5:11 AM 24.8 °F 14.0 °F 17.6 °F 74% 30.05 in 10.0 mi North 11.5 mph 20.7 mph N/A   Overcast
5:53 AM 24.1 °F 14.4 °F 16.0 °F 71% 30.12 in 10.0 mi NNW 9.2 mph - N/A   Overcast
6:26 AM 23.0 °F 13.9 °F 14.0 °F 68% 30.11 in 10.0 mi NNW 8.1 mph 16.1 mph N/A   Overcast
6:53 AM 23.0 °F 13.1 °F 14.0 °F 68% 30.17 in 10.0 mi NW 9.2 mph - N/A   Overcast
7:10 AM 23.0 °F 13.9 °F 12.2 °F 63% 30.14 in 10.0 mi NW 8.1 mph - N/A   Overcast
7:17 AM 21.2 °F 10.9 °F 12.2 °F 68% 30.15 in 10.0 mi NNW 9.2 mph - N/A   Overcast
7:33 AM 21.2 °F 10.9 °F 12.2 °F 68% 30.16 in 9.0 mi NW 9.2 mph - 0.00 in Snow Light Snow
7:53 AM 21.9 °F 12.5 °F 12.9 °F 68% 30.21 in 9.0 mi NNW 8.1 mph 16.1 mph 0.00 in Snow Light Snow
8:53 AM 21.9 °F 13.4 °F 12.9 °F 68% 30.25 in 10.0 mi NW 6.9 mph - 0.00 in   Overcast
9:06 AM 21.2 °F 11.7 °F 12.2 °F 68% 30.21 in 10.0 mi NW 8.1 mph - N/A   Overcast
9:43 AM 21.2 °F 10.9 °F 12.2 °F 68% 30.23 in 10.0 mi NW 9.2 mph - N/A   Scattered Clouds
9:53 AM 21.9 °F 11.0 °F 12.0 °F 66% 30.27 in 10.0 mi NW 10.4 mph - N/A   Partly Cloudy
10:07 AM 21.2 °F 10.1 °F 12.2 °F 68% 30.23 in 10.0 mi NW 10.4 mph - N/A   Mostly Cloudy
10:30 AM 21.2 °F 11.7 °F 10.4 °F 63% 30.24 in 10.0 mi NW 8.1 mph - N/A   Scattered Clouds
10:53 AM 24.1 °F 16.0 °F 12.0 °F 60% 30.28 in 10.0 mi WNW 6.9 mph - N/A   Mostly Cloudy
11:53 AM 24.1 °F 19.7 °F 10.9 °F 57% 30.29 in 10.0 mi NNW 3.5 mph - N/A   Mostly Cloudy
12:02 PM 24.8 °F 20.5 °F 10.4 °F 54% 30.25 in 10.0 mi Variable 3.5 mph - N/A   Scattered Clouds
12:53 PM 25.0 °F 16.3 °F 10.0 °F 53% 30.29 in 10.0 mi WNW 8.1 mph - N/A   Partly Cloudy
1:53 PM 25.0 °F 16.3 °F 8.1 °F 49% 30.30 in 10.0 mi NW 8.1 mph - N/A   Clear
5:53 PM 23.0 °F - 10.9 °F 60% 30.33 in 10.0 mi Calm Calm - N/A   Clear
6:53 PM 19.0 °F - 10.0 °F 68% 30.35 in 10.0 mi Calm Calm - N/A   Clear
7:53 PM 16.0 °F - 9.0 °F 74% 30.37 in 10.0 mi Calm Calm - N/A   Clear
8:53 PM 14.0 °F - 9.0 °F 80% 30.37 in 10.0 mi Calm Calm - N/A   Clear
9:53 PM 10.9 °F - 5.0 °F 77% 30.38 in 9.0 mi Calm Calm - N/A   Clear
10:53 PM 10.9 °F 4.7 °F 6.1 °F 81% 30.35 in 10.0 mi SE 3.5 mph - N/A   Clear
11:53 PM 9.0 °F - 3.9 °F 80% 30.33 in 10.0 mi Calm Calm - N/A   Clear